| time (UTC) | temp C | wind direction | speed KPH | gust KPH | rain 1hr cm | rain 24hr cm | rain mn cm | humidity % | barometer mb |
| 20260505081003 | 16 | 25 | 1.6 | 3.2 | 0.00 | 0.00 | 0.00 | 70 | 1014.0 |
| 20260505080503 | 16 | 27 | 1.6 | 3.2 | 0.00 | 0.00 | 0.00 | 70 | 1013.8 |
| 20260505080003 | 16 | 31 | 1.6 | 3.2 | 0.00 | 0.00 | 0.00 | 70 | 1013.6 |
| 20260505075503 | 16 | 21 | 0.0 | 3.2 | 0.00 | 0.00 | 0.00 | 70 | 1014.0 |
| 20260505075004 | 16 | 27 | 1.6 | 3.2 | 0.00 | 0.00 | 0.00 | 71 | 1013.8 |
| 20260505074503 | 16 | 68 | 1.6 | 3.2 | 0.00 | 0.00 | 0.00 | 71 | 1013.7 |
| 20260505074003 | 15 | 117 | 1.6 | 6.4 | 0.00 | 0.00 | 0.00 | 71 | 1013.9 |
| 20260505073503 | 15 | 128 | 3.2 | 6.4 | 0.00 | 0.00 | 0.00 | 72 | 1014.2 |
| 20260505073003 | 15 | 128 | 3.2 | 6.4 | 0.00 | 0.00 | 0.00 | 72 | 1013.9 |
| 20260505072503 | 15 | 120 | 3.2 | 6.4 | 0.00 | 0.00 | 0.00 | 72 | 1013.9 |
| 20260505072003 | 16 | 115 | 3.2 | 6.4 | 0.00 | 0.00 | 0.00 | 72 | 1013.7 |
| 20260505071503 | 15 | 121 | 4.8 | 8.0 | 0.00 | 0.00 | 0.00 | 72 | 1013.5 |
| 20260505071003 | 15 | 126 | 4.8 | 8.0 | 0.00 | 0.00 | 0.00 | 72 | 1013.9 |
| 20260505070503 | 15 | 127 | 4.8 | 8.0 | 0.00 | 0.00 | 0.00 | 73 | 1013.9 |
| 20260505070003 | 15 | 133 | 4.8 | 8.0 | 0.00 | 0.00 | 0.00 | 72 | 1013.8 |
| 20260505065503 | 15 | 137 | 3.2 | 6.4 | 0.00 | 0.00 | 0.00 | 73 | 1013.7 |
| 20260505065003 | 15 | 132 | 3.2 | 6.4 | 0.00 | 0.00 | 0.00 | 73 | 1013.8 |
| 20260505064503 | 15 | 132 | 3.2 | 6.4 | 0.00 | 0.00 | 0.00 | 74 | 1013.8 |
| 20260505064003 | 15 | 129 | 3.2 | 6.4 | 0.00 | 0.00 | 0.00 | 74 | 1013.4 |
| 20260505063503 | 15 | 129 | 3.2 | 6.4 | 0.00 | 0.00 | 0.00 | 74 | 1013.4 |
| 20260505063003 | 15 | 136 | 3.2 | 6.4 | 0.00 | 0.00 | 0.00 | 74 | 1013.5 |
| 20260505062503 | 15 | 135 | 3.2 | 6.4 | 0.00 | 0.00 | 0.00 | 74 | 1013.4 |
| 20260505062003 | 15 | 134 | 3.2 | 8.0 | 0.00 | 0.00 | 0.00 | 74 | 1013.5 |
| 20260505061503 | 15 | 138 | 4.8 | 11.3 | 0.00 | 0.00 | 0.00 | 74 | 1013.4 |
| 20260505061003 | 14 | 139 | 4.8 | 11.3 | 0.00 | 0.00 | 0.00 | 75 | 1013.5 |
| 20260505060503 | 14 | 139 | 4.8 | 9.7 | 0.00 | 0.00 | 0.00 | 75 | 1013.6 |
| 20260505060003 | 14 | 138 | 4.8 | 9.7 | 0.00 | 0.00 | 0.00 | 74 | 1013.3 |
| 20260505055503 | 14 | 137 | 4.8 | 9.7 | 0.00 | 0.00 | 0.00 | 74 | 1013.6 |
| 20260505055003 | 14 | 135 | 4.8 | 8.0 | 0.00 | 0.00 | 0.00 | 74 | 1013.3 |
| 20260505054503 | 14 | 134 | 4.8 | 8.0 | 0.00 | 0.00 | 0.00 | 72 | 1013.2 |
| 20260505054003 | 14 | 131 | 1.6 | 6.4 | 0.00 | 0.00 | 0.00 | 72 | 1013.1 |
| 20260505053503 | 14 | 121 | 1.6 | 4.8 | 0.00 | 0.00 | 0.00 | 72 | 1013.0 |
| 20260505053003 | 14 | 132 | 3.2 | 8.0 | 0.00 | 0.00 | 0.00 | 72 | 1013.0 |
| 20260505052503 | 14 | 143 | 3.2 | 8.0 | 0.00 | 0.00 | 0.00 | 72 | 1013.0 |
| 20260505052003 | 14 | 140 | 1.6 | 6.4 | 0.00 | 0.00 | 0.00 | 71 | 1013.2 |
| 20260505051503 | 14 | 83 | 1.6 | 4.8 | 0.00 | 0.00 | 0.00 | 71 | 1012.9 |
| 20260505051003 | 14 | 72 | 1.6 | 4.8 | 0.00 | 0.00 | 0.00 | 71 | 1012.9 |
| 20260505050503 | 14 | 125 | 1.6 | 4.8 | 0.00 | 0.00 | 0.00 | 72 | 1013.0 |
| 20260505041503 | 14 | 43 | 1.6 | 3.2 | 0.00 | 0.00 | 0.00 | 74 | 1012.9 |
| 20260505041003 | 14 | 30 | 1.6 | 3.2 | 0.00 | 0.00 | 0.00 | 74 | 1013.1 |
| 20260505040503 | 14 | 177 | 1.6 | 4.8 | 0.00 | 0.00 | 0.00 | 74 | 1012.8 |
| 20260505040004 | 14 | 104 | 1.6 | 4.8 | 0.00 | 0.00 | 0.00 | 74 | 1012.8 |
| 20260505035503 | 13 | 16 | 1.6 | 3.2 | 0.00 | 0.00 | 0.00 | 72 | 1012.8 |
| 20260505035003 | 13 | 360 | 1.6 | 3.2 | 0.00 | 0.00 | 0.00 | 72 | 1012.9 |
| 20260505034503 | 13 | 337 | 1.6 | 3.2 | 0.00 | 0.00 | 0.00 | 72 | 1012.8 |
| 20260505034003 | 13 | 337 | 1.6 | 4.8 | 0.00 | 0.00 | 0.00 | 72 | 1012.7 |
| 20260505033503 | 13 | 295 | 0.0 | 4.8 | 0.00 | 0.00 | 0.00 | 72 | 1013.1 |
| 20260505033003 | 13 | 247 | 0.0 | 3.2 | 0.00 | 0.00 | 0.00 | 72 | 1012.9 |
| 20260505032503 | 13 | 32 | 1.6 | 4.8 | 0.00 | 0.00 | 0.00 | 72 | 1012.9 |
| 20260505032003 | 13 | 26 | 3.2 | 6.4 | 0.00 | 0.00 | 0.00 | 72 | 1012.8 |
| 20260505031503 | 13 | 13 | 3.2 | 6.4 | 0.00 | 0.00 | 0.00 | 72 | 1012.6 |
| 20260505031003 | 13 | 7 | 3.2 | 6.4 | 0.00 | 0.00 | 0.00 | 72 | 1012.6 |
| 20260505030003 | 13 | 2 | 1.6 | 4.8 | 0.00 | 0.00 | 0.00 | 72 | 1012.9 |
| 20260505025503 | 13 | 360 | 1.6 | 4.8 | 0.00 | 0.00 | 0.00 | 72 | 1012.9 |
| 20260505025003 | 13 | 357 | 1.6 | 3.2 | 0.00 | 0.00 | 0.00 | 72 | 1012.9 |
| 20260505024503 | 13 | 346 | 1.6 | 3.2 | 0.00 | 0.00 | 0.00 | 72 | 1013.0 |
| 20260505024003 | 13 | 323 | 1.6 | 3.2 | 0.00 | 0.00 | 0.00 | 72 | 1013.1 |
| 20260505023503 | 13 | 10 | 1.6 | 4.8 | 0.00 | 0.00 | 0.00 | 72 | 1013.0 |
| 20260505023003 | 13 | 3 | 3.2 | 6.4 | 0.00 | 0.00 | 0.00 | 72 | 1013.0 |
| 20260505022503 | 13 | 354 | 3.2 | 6.4 | 0.00 | 0.00 | 0.00 | 72 | 1013.0 |
| 20260505022003 | 13 | 352 | 3.2 | 6.4 | 0.00 | 0.00 | 0.00 | 72 | 1013.0 |
| 20260505021503 | 13 | 9 | 3.2 | 4.8 | 0.00 | 0.00 | 0.00 | 72 | 1013.2 |
| 20260505021003 | 13 | 21 | 1.6 | 4.8 | 0.00 | 0.00 | 0.00 | 72 | 1013.2 |
| 20260505020503 | 13 | 23 | 3.2 | 4.8 | 0.00 | 0.00 | 0.00 | 72 | 1013.2 |
| 20260505020003 | 13 | 14 | 3.2 | 6.4 | 0.00 | 0.00 | 0.00 | 72 | 1013.2 |
| 20260505015503 | 13 | 4 | 3.2 | 6.4 | 0.00 | 0.00 | 0.00 | 72 | 1013.4 |
| 20260505015003 | 13 | 4 | 3.2 | 6.4 | 0.00 | 0.00 | 0.00 | 72 | 1013.3 |
| 20260505014503 | 13 | 359 | 3.2 | 6.4 | 0.00 | 0.00 | 0.00 | 72 | 1013.3 |
| 20260505014004 | 13 | 3 | 3.2 | 4.8 | 0.00 | 0.00 | 0.00 | 72 | 1013.5 |
| 20260505013503 | 13 | 359 | 3.2 | 4.8 | 0.00 | 0.00 | 0.00 | 72 | 1013.6 |
| 20260505013003 | 13 | 26 | 3.2 | 6.4 | 0.00 | 0.00 | 0.00 | 72 | 1013.4 |
| 20260505012503 | 13 | 124 | 4.8 | 9.7 | 0.00 | 0.00 | 0.00 | 72 | 1013.4 |
| 20260505012003 | 13 | 135 | 6.4 | 9.7 | 0.00 | 0.00 | 0.00 | 72 | 1013.7 |
| 20260505011503 | 13 | 135 | 6.4 | 9.7 | 0.00 | 0.00 | 0.00 | 72 | 1013.3 |
| 20260505011003 | 13 | 128 | 6.4 | 9.7 | 0.00 | 0.00 | 0.00 | 72 | 1013.6 |
| 20260505010503 | 13 | 118 | 6.4 | 9.7 | 0.00 | 0.00 | 0.00 | 69 | 1013.7 |
| 20260505010004 | 13 | 118 | 6.4 | 8.0 | 0.00 | 0.00 | 0.00 | 69 | 1013.7 |
| 20260505005503 | 13 | 133 | 4.8 | 8.0 | 0.00 | 0.00 | 0.00 | 69 | 1013.8 |
| 20260505005004 | 13 | 141 | 4.8 | 8.0 | 0.00 | 0.00 | 0.00 | 69 | 1013.8 |
| 20260505004503 | 13 | 131 | 4.8 | 8.0 | 0.00 | 0.00 | 0.00 | 69 | 1014.0 |
| 20260505004003 | 13 | 132 | 4.8 | 8.0 | 0.00 | 0.00 | 0.00 | 69 | 1014.0 |
| 20260505003503 | 13 | 142 | 1.6 | 4.8 | 0.00 | 0.00 | 0.00 | 69 | 1014.3 |
| 20260505003003 | 13 | 128 | 1.6 | 3.2 | 0.00 | 0.00 | 0.00 | 69 | 1014.0 |
| 20260505002503 | 13 | 97 | 1.6 | 4.8 | 0.00 | 0.00 | 0.00 | 69 | 1014.2 |
| 20260505002003 | 13 | 112 | 1.6 | 6.4 | 0.00 | 0.00 | 0.00 | 69 | 1014.5 |
| 20260505001503 | 13 | 132 | 1.6 | 6.4 | 0.00 | 0.00 | 0.00 | 69 | 1014.5 |
| 20260505001003 | 13 | 129 | 1.6 | 6.4 | 0.00 | 0.00 | 0.00 | 69 | 1014.7 |
| 20260505000503 | 13 | 132 | 1.6 | 4.8 | 0.00 | 0.00 | 0.00 | 69 | 1014.6 |
| 20260505000003 | 13 | 105 | 1.6 | 6.4 | 0.00 | 0.00 | 0.00 | 69 | 1014.5 |
| 20260504235503 | 13 | 119 | 3.2 | 6.4 | 0.00 | 0.00 | 0.00 | 69 | 1014.6 |
| 20260504235003 | 13 | 132 | 3.2 | 6.4 | 0.00 | 0.00 | 0.00 | 69 | 1014.7 |
| 20260504234503 | 13 | 124 | 4.8 | 8.0 | 0.00 | 0.00 | 0.00 | 69 | 1014.9 |
| 20260504234003 | 13 | 129 | 4.8 | 8.0 | 0.00 | 0.00 | 0.00 | 69 | 1014.7 |
| 20260504233503 | 13 | 140 | 3.2 | 8.0 | 0.00 | 0.00 | 0.00 | 69 | 1014.9 |
| 20260504233003 | 13 | 139 | 3.2 | 6.4 | 0.00 | 0.00 | 0.00 | 69 | 1015.0 |
| 20260504232503 | 13 | 89 | 3.2 | 6.4 | 0.00 | 0.00 | 0.00 | 69 | 1014.8 |
| 20260504232003 | 13 | 38 | 3.2 | 6.4 | 0.00 | 0.00 | 0.00 | 69 | 1014.9 |
| 20260504231503 | 13 | 53 | 1.6 | 4.8 | 0.00 | 0.00 | 0.00 | 69 | 1015.1 |
| 20260504231003 | 13 | 70 | 1.6 | 6.4 | 0.00 | 0.00 | 0.00 | 69 | 1015.0 |
| 20260504230503 | 13 | 144 | 1.6 | 6.4 | 0.00 | 0.00 | 0.00 | 69 | 1015.0 |
| 20260504230003 | 13 | 307 | 1.6 | 6.4 | 0.00 | 0.00 | 0.00 | 69 | 1014.9 |
| 20260504225503 | 13 | 193 | 1.6 | 6.4 | 0.00 | 0.00 | 0.00 | 69 | 1015.1 |
| 20260504225003 | 13 | 146 | 1.6 | 3.2 | 0.00 | 0.00 | 0.00 | 69 | 1015.1 |
| 20260504224503 | 13 | 135 | 1.6 | 3.2 | 0.00 | 0.00 | 0.00 | 68 | 1015.0 |
| 20260504224003 | 14 | 25 | 3.2 | 6.4 | 0.00 | 0.00 | 0.00 | 67 | 1015.2 |
| 20260504223503 | 14 | 13 | 4.8 | 6.4 | 0.00 | 0.00 | 0.00 | 67 | 1015.1 |
| 20260504223003 | 14 | 7 | 3.2 | 6.4 | 0.00 | 0.00 | 0.00 | 67 | 1014.9 |
| 20260504222503 | 14 | 343 | 1.6 | 4.8 | 0.00 | 0.00 | 0.00 | 67 | 1015.2 |
| 20260504222003 | 14 | 262 | 1.6 | 4.8 | 0.00 | 0.00 | 0.00 | 67 | 1015.2 |
| 20260504221503 | 14 | 205 | 3.2 | 6.4 | 0.00 | 0.00 | 0.00 | 67 | 1015.3 |
| 20260504221003 | 14 | 175 | 4.8 | 6.4 | 0.00 | 0.00 | 0.00 | 67 | 1015.1 |
| 20260504220503 | 14 | 171 | 4.8 | 9.7 | 0.00 | 0.00 | 0.00 | 67 | 1015.1 |
| 20260504220003 | 14 | 173 | 4.8 | 9.7 | 0.00 | 0.00 | 0.00 | 67 | 1015.2 |
| 20260504215503 | 14 | 171 | 4.8 | 6.4 | 0.00 | 0.00 | 0.00 | 67 | 1015.0 |
| 20260504215003 | 14 | 171 | 4.8 | 6.4 | 0.00 | 0.00 | 0.00 | 67 | 1015.1 |
| 20260504214503 | 15 | 168 | 4.8 | 6.4 | 0.00 | 0.00 | 0.00 | 66 | 1015.2 |
| 20260504214003 | 15 | 165 | 3.2 | 6.4 | 0.00 | 0.00 | 0.00 | 66 | 1015.4 |
| 20260504213503 | 15 | 174 | 3.2 | 4.8 | 0.00 | 0.00 | 0.00 | 64 | 1015.2 |
| 20260504213003 | 15 | 195 | 1.6 | 3.2 | 0.00 | 0.00 | 0.00 | 64 | 1015.2 |
| 20260504212503 | 15 | 222 | 1.6 | 3.2 | 0.00 | 0.00 | 0.00 | 64 | 1015.4 |
| 20260504212003 | 15 | 227 | 1.6 | 3.2 | 0.00 | 0.00 | 0.00 | 64 | 1015.3 |
| 20260504211503 | 15 | 205 | 1.6 | 3.2 | 0.00 | 0.00 | 0.00 | 64 | 1015.4 |
| 20260504211003 | 15 | 192 | 1.6 | 3.2 | 0.00 | 0.00 | 0.00 | 64 | 1015.5 |
| 20260504210503 | 16 | 181 | 3.2 | 4.8 | 0.00 | 0.00 | 0.00 | 63 | 1015.4 |
| 20260504210003 | 16 | 177 | 3.2 | 4.8 | 0.00 | 0.00 | 0.00 | 63 | 1015.5 |
| 20260504205503 | 17 | 188 | 3.2 | 4.8 | 0.00 | 0.00 | 0.00 | 59 | 1015.5 |
| 20260504205003 | 17 | 205 | 1.6 | 4.8 | 0.00 | 0.00 | 0.00 | 59 | 1015.4 |
| 20260504204503 | 17 | 220 | 1.6 | 3.2 | 0.00 | 0.00 | 0.00 | 59 | 1015.3 |
| 20260504204003 | 17 | 199 | 0.0 | 3.2 | 0.00 | 0.00 | 0.00 | 59 | 1015.3 |
| 20260504203503 | 17 | 199 | 1.6 | 3.2 | 0.00 | 0.00 | 0.00 | 59 | 1015.5 |
| 20260504203003 | 17 | 178 | 1.6 | 6.4 | 0.00 | 0.00 | 0.00 | 59 | 1015.3 |
| 20260504202503 | 17 | 169 | 3.2 | 6.4 | 0.00 | 0.00 | 0.00 | 59 | 1015.6 |
| 20260504202003 | 17 | 170 | 3.2 | 6.4 | 0.00 | 0.00 | 0.00 | 59 | 1015.3 |
| 20260504201503 | 17 | 177 | 3.2 | 6.4 | 0.00 | 0.00 | 0.00 | 59 | 1015.2 |
| 20260504201003 | 17 | 190 | 3.2 | 6.4 | 0.00 | 0.00 | 0.00 | 59 | 1015.3 |
| 20260504200503 | 17 | 190 | 1.6 | 6.4 | 0.00 | 0.00 | 0.00 | 59 | 1015.3 |
| 20260504200003 | 17 | 29 | 1.6 | 4.8 | 0.00 | 0.00 | 0.00 | 59 | 1015.2 |
| 20260504195503 | 17 | 28 | 1.6 | 4.8 | 0.00 | 0.00 | 0.00 | 59 | 1015.4 |
| 20260504195003 | 17 | 347 | 1.6 | 3.2 | 0.00 | 0.00 | 0.00 | 59 | 1015.1 |
| 20260504194503 | 17 | 182 | 1.6 | 6.4 | 0.00 | 0.00 | 0.00 | 60 | 1015.1 |
| 20260504194003 | 17 | 163 | 3.2 | 8.0 | 0.00 | 0.00 | 0.00 | 60 | 1015.1 |
| 20260504193503 | 17 | 160 | 4.8 | 9.7 | 0.00 | 0.00 | 0.00 | 60 | 1015.2 |
| 20260504193003 | 17 | 157 | 4.8 | 9.7 | 0.00 | 0.00 | 0.00 | 60 | 1015.1 |
| 20260504192503 | 17 | 145 | 4.8 | 9.7 | 0.00 | 0.00 | 0.00 | 60 | 1015.2 |
| 20260504192003 | 17 | 133 | 4.8 | 9.7 | 0.00 | 0.00 | 0.00 | 60 | 1015.1 |
| 20260504191503 | 17 | 132 | 4.8 | 11.3 | 0.00 | 0.00 | 0.00 | 59 | 1015.1 |
| 20260504191003 | 18 | 134 | 4.8 | 11.3 | 0.00 | 0.00 | 0.00 | 59 | 1015.1 |
| 20260504190504 | 18 | 137 | 4.8 | 8.0 | 0.00 | 0.00 | 0.00 | 57 | 1015.0 |
| 20260504190003 | 18 | 143 | 4.8 | 9.7 | 0.00 | 0.00 | 0.00 | 57 | 1014.9 |
| 20260504185503 | 18 | 144 | 6.4 | 12.9 | 0.00 | 0.00 | 0.00 | 56 | 1015.0 |
| 20260504185003 | 18 | 148 | 6.4 | 12.9 | 0.00 | 0.00 | 0.00 | 56 | 1014.8 |
| 20260504184503 | 19 | 155 | 4.8 | 9.7 | 0.00 | 0.00 | 0.00 | 55 | 1014.9 |
| 20260504184003 | 19 | 153 | 6.4 | 12.9 | 0.00 | 0.00 | 0.00 | 55 | 1014.8 |
| 20260504183503 | 19 | 155 | 8.0 | 17.7 | 0.00 | 0.00 | 0.00 | 54 | 1015.0 |
| 20260504183003 | 19 | 158 | 8.0 | 17.7 | 0.00 | 0.00 | 0.00 | 54 | 1014.9 |
| 20260504182503 | 19 | 156 | 8.0 | 16.1 | 0.00 | 0.00 | 0.00 | 53 | 1014.7 |
| 20260504182003 | 20 | 156 | 8.0 | 19.3 | 0.00 | 0.00 | 0.00 | 53 | 1014.8 |
| 20260504181503 | 20 | 153 | 8.0 | 19.3 | 0.00 | 0.00 | 0.00 | 52 | 1014.7 |
| 20260504181003 | 20 | 153 | 8.0 | 19.3 | 0.00 | 0.00 | 0.00 | 51 | 1014.7 |
| 20260504180503 | 20 | 153 | 9.7 | 22.5 | 0.00 | 0.00 | 0.00 | 50 | 1014.9 |
| 20260504180003 | 20 | 151 | 11.3 | 25.7 | 0.00 | 0.00 | 0.00 | 50 | 1014.8 |
| 20260504175503 | 21 | 149 | 12.9 | 25.7 | 0.00 | 0.00 | 0.00 | 49 | 1014.7 |
| 20260504175003 | 21 | 152 | 12.9 | 25.7 | 0.00 | 0.00 | 0.00 | 48 | 1014.7 |
| 20260504174503 | 21 | 151 | 14.5 | 29.0 | 0.00 | 0.00 | 0.00 | 47 | 1014.4 |
| 20260504174003 | 21 | 145 | 14.5 | 29.0 | 0.00 | 0.00 | 0.00 | 47 | 1014.6 |
| 20260504173503 | 22 | 144 | 12.9 | 27.4 | 0.00 | 0.00 | 0.00 | 47 | 1014.5 |
| 20260504173003 | 22 | 143 | 12.9 | 27.4 | 0.00 | 0.00 | 0.00 | 46 | 1014.6 |
| 20260504172503 | 22 | 140 | 14.5 | 27.4 | 0.00 | 0.00 | 0.00 | 45 | 1014.5 |
| 20260504172003 | 23 | 147 | 12.9 | 27.4 | 0.00 | 0.00 | 0.00 | 44 | 1014.4 |
| 20260504171503 | 23 | 159 | 9.7 | 22.5 | 0.00 | 0.00 | 0.00 | 44 | 1014.2 |
| 20260504171003 | 23 | 163 | 8.0 | 20.9 | 0.00 | 0.00 | 0.00 | 36 | 1014.4 |
| 20260504170503 | 23 | 162 | 6.4 | 11.3 | 0.00 | 0.00 | 0.00 | 35 | 1014.0 |
| 20260504151003 | 26 | 145 | 8.0 | 14.5 | 0.00 | 0.00 | 0.00 | 35 | 1014.4 |
| 20260504150503 | 26 | 148 | 8.0 | 16.1 | 0.00 | 0.00 | 0.00 | 37 | 1014.5 |
| 20260504141003 | 26 | 149 | 9.7 | 17.7 | 0.00 | 0.00 | 0.00 | 39 | 1014.9 |
| 20260504140503 | 26 | 145 | 9.7 | 17.7 | 0.00 | 0.00 | 0.00 | 38 | 1014.8 |
| 20260504130503 | 26 | 172 | 6.4 | 19.3 | 0.00 | 0.00 | 0.00 | 40 | 1015.5 |
| 20260504110503 | 25 | 119 | 4.8 | 9.7 | 0.00 | 0.00 | 0.00 | 47 | 1016.3 |
| 20260504100503 | 23 | 189 | 4.8 | 14.5 | 0.00 | 0.00 | 0.00 | 53 | 1017.1 |
| 20260504082003 | 21 | 344 | 4.8 | 9.7 | 0.00 | 0.00 | 0.00 | 55 | 1017.4 |
| 20260504081503 | 21 | 352 | 4.8 | 12.9 | 0.00 | 0.00 | 0.00 | 56 | 1017.4 |